sat.trackr.live / text

‹ back to catalog

HAWK-3B

NORAD 48931 · 2021-059BE

PAYLOAD ACTIVE UNKNOWN

§ Identity

Operator
Country
US
Launch date
2021-06-30
Launch site
AFETR
Launch vehicle
Mass (kg)
RCS (m²)

Purposes: tech_demo

External: N2YO · Heavens-Above · Gunter

§ Orbital elements

Epoch: 2026-09-20T00:16:14.655936Z

Period
91.25 min
Inclination
97.6557°
Eccentricity
0.0002850
Mean motion
15.78015436 rev/d
Perigee alt
334.2 km
Apogee alt
338.0 km
Semi-major
6,714.2 km
B*
2.9114e-4
RAAN
109.2560°
Arg perigee
345.2786°
Mean anomaly
14.8396°
Rev number
29,276

§ Raw data

HAWK-3B1 48931U 21059BE  26263.01128074  .00049306  00000+0  29114-3 0  99952 48931  97.6557 109.2560 0002850 345.2786  14.8396 15.78015436292766

JSON: /api/v1/satellites/48931 · /tle

For live sub-satellite position, see the globe view (requires WebGL).

§ Visibility from observer

Set your observer location to see the next 7 days of passes ≥ 10°. The values pass through the URL so the page stays shareable.

No JS? Fill the form by hand. The geolocation button needs JavaScript.